Location: ??
(35.4627°N, 139.3695°E)
Time: 14:54:45
(UTC+00:00)

SJ 16-02 - Pass Details

Date: 25 November 2020
Orbit: 606 x 616 km, 75.0° (Epoch: 21 January)

Event Time Altitude Azimuth Distance (km) Brightness Sun altitude
Rises 19:47:08 0° 197° (SSW) 2,858 4.7 -20.4°
Reaches altitude 10° 19:49:21 10° 199° (SSW) 1,960 3.9 -19.9°
Maximum altitude 19:53:44 80° 285° (WNW) 627 1.2 -19.1°
Drops below altitude 10° 19:58:10 10° 14° (NNE) 1,979 4.0 -18.2°
Sets 20:00:25 0° 15° (NNE) 2,889 4.8 -17.7°
